User: anonymous   Login
Location: Walnut Point State Park
(39.6958°N, 88.0345°W)
Time: 12:15:17
(UTC-06:00)
Language:

Iridium 75 - Orbit

View from above orbital plane
View from above orbital plane
View from above satellite
View from above satellite

Ground track
Ground track

The orbit data is extracted from the following two-line orbital elements,

1 25346U 98032E   17021.36465175  .00000009  00000-0 -39104-5 0  9992
2 25346  86.3971 285.4855 0002095  84.9993  51.4991 14.34217380978625
Epoch (UTC): 21 January 2017 08:45:05
Eccentricity: 0.0002095
inclination: 86.3971°
perigee height: 776 km
apogee height: 779 km
right ascension of ascending node: 285.4855°
argument of perigee: 84.9993°
revolutions per day: 14.34217380
mean anomaly at epoch: 51.4991°
orbit number at epoch: 97862

The dashed part of the orbit path shows where the satellite is in the earth's shadow,  

DLR